Regional Weather Roundup
Issued by NWS Austin/San Antonio, TX

Home | Current Version | Previous Version | Text Only | Print | Product List | Glossary On
Versions: 1 2 3 4 5 6 7 8 9 10 11 12 13 14 15 16 17 18 19 20 21 22 23 24 25 26 27 28 29 30 31 32 33 34 35 36 37 38 39 40 41 42 43 44 45 46 47 48 49 50
000
ASUS44 KEWX 281502
RWREWX
SOUTH TEXAS REGIONAL WEATHER ROUNDUP
NATIONAL WEATHER SERVICE AUSTIN/SAN ANTONIO TX
1000 AM CDT WED JUN 28 2017

NOTE: "FAIR" INDICATED FEW OR NO CLOUDS BELOW 12,000 FEET WITH NO
SIGNIFICANT WEATHER AND/OR OBSTRUCTIONS TO VISIBILITY.

* - THESE STATIONS ARE NOT NWS OR FAA STATIONS...AND ARE NOT SUBJECT
    TO NWS AND FAA QUALITY CONTROL.

TXZ171-172-183>190-281600-
TEXAS HILL COUNTRY AND EDWARDS PLATEAU

CITY           SKY/WX    TMP DP  RH WIND       PRES   REMARKS
JUNCTION       CLOUDY    75  67  76 S6        29.98S
*LLANO         CLOUDY    73  70  88 CALM      30.01S
BURNET         PTSUNNY   77  66  68 S8        29.99S
*HORSESHOE BAY CLOUDY    77  70  78 MISG      29.97F
*KERRVILLE     PTSUNNY   76  71  83 SE5       29.98S
*FREDERICKSBRG PTSUNNY   74  65  74 CALM      29.98F
*ROCKSPRINGS   CLOUDY    73  73 100 CALM      30.02S
*BOERNE STAGE  CLOUDY    72  68  88 NE3       29.99F
*CASTROVILLE   PTSUNNY   78  71  76 NE5       29.96S
HONDO          PTSUNNY   79  71  76 E5        29.95S
*UVALDE        PTSUNNY   75  71  86 E8        29.96S
DEL RIO        CLOUDY    75  70  84 SE9       29.93F
LAUGHLIN AFB   CLOUDY    75  70  83 S9        29.94S
CARRIZO SPRGS  CLOUDY    77  72  83 SE5       29.93S
*EAGLE PASS    CLOUDY    77  70  78 VRB6      29.94S
$$

TXZ173-191>194-202-209-217>225-228-281600-
CENTRAL AND SOUTH CENTRAL TEXAS

CITY           SKY/WX    TMP DP  RH WIND       PRES   REMARKS
GEORGETOWN     PTSUNNY   77  70  78 SE6       29.96S
AUSTIN/BERGSTM PTSUNNY   80  72  76 E3        29.94S
AUSTIN/MABRY   PTSUNNY   79  71  76 E3        29.96S
*AUSTIN/EXEC     N/A     77  73  88 CALM      29.96S
*LAGO VISTA    CLOUDY    77  72  84 E3        29.98S
SAN MARCOS     PTSUNNY   75  73  94 E5        29.96S
NEW BRAUNFELS  CLOUDY    78  73  84 NE7       29.94S
RANDOLPH AFB   PTSUNNY   77  75  95 E7        29.95S
PT SAN ANTONIO CLOUDY    77  72  83 NE6       29.93S
SAN ANTONIO    PTSUNNY   78  69  73 NE7       29.95S
STINSON FIELD  CLOUDY    78  70  76 E8        29.93R
*LA GRANGE     CLOUDY    79  75  85 CALM      29.92S
*GIDDINGS      PTSUNNY   76  72  86 E6        29.95S
*GONZALES      PTSUNNY   80  75  84 NE3       29.92S
$$

TXZ163>164-176>182-195>201-210>213-226-227-235-281600-
SOUTHEAST TEXAS

CITY           SKY/WX    TMP DP  RH WIND       PRES   REMARKS
COLLEGE STN    CLOUDY    74  72  93 NE10      29.95S
*BRYAN         CLOUDY    75  75  99 E6        29.97F
*CALDWELL      NOT AVBL
*CROCKETT      SUNNY     81  72  74 E5        30.01S
*BRENHAM       PTSUNNY   81  73  77 E7        29.94S
HUNTSVILLE     PTSUNNY   80  72  76 E5        29.97R
CONROE         PTSUNNY   79  73  82 E7        29.94F
HOUSTON BUSH   PTSUNNY   81  73  76 E8        29.93R
HOUSTON HOBBY  MOSUNNY   82  74  76 E9        29.91S
*HOUSTON SW AP PTSUNNY   81  74  80 E7        29.92S
PEARLAND       PTSUNNY   83  75  77 E9G18     29.92S HX  90
HOUSTON HOOKS  PTSUNNY   81  73  76 VRB6      29.93S
ELLINGTON FLD  PTSUNNY   84  77  79 E9        29.92  HX  94
SUGAR LAND     PTSUNNY   83  74  74 E8        29.91R
*HOUSTON EXEC  MOSUNNY   81  73  78 E7        29.93S
*CLEVELAND MUN MOSUNNY   82  74  77 E5        29.95S
*WHARTON       MOSUNNY   80  73  77 NE7       29.90F
*COLUMBUS      CLOUDY    80  73  79 E7        29.93R
*EAGLE LAKE    PTSUNNY   81  76  85 E8        29.92R
$$

TXZ214>216-236>238-281600-
THE UPPER TEXAS COAST

CITY           SKY/WX    TMP DP  RH WIND       PRES   REMARKS
*ORANGE        PTSUNNY   81  75  83 E12G17    29.96S
PORT ARTHUR      N/A    N/A N/A N/A MISG        N/A
GALVESTON      CLOUDY    81  76  84 E7        29.92R
ANGLETON       MOSUNNY   82  76  81 NE9       29.90R
*BAY CITY      CLOUDY    82  76  82 E6        29.90R
PALACIOS       PTSUNNY   77  75  93 NE8       29.88S
$$

TXZ229>234-239>247-281600-
TEXAS COASTAL BEND AND RIO GRANDE PLAINS

CITY           SKY/WX    TMP DP  RH WIND       PRES   REMARKS
VICTORIA       MOSUNNY   81  75  82 NE9       29.90S
*BEEVILLE      CLOUDY    82  79  89 N9        29.90S HX  93
ROCKPORT       MOSUNNY   85  74  69 NE10      29.88R HX  92
*PORT ARANSAS  MOSUNNY   80  75  86 N10       29.88R
*PORT LAVACA   MOSUNNY   81  77  88 CALM      29.88F
*INGLESIDE     MOSUNNY   82  77  83 MISG      29.88R HX  90
CORPUS CHRISTI PTSUNNY   85  77  77 N12       29.88S HX  95
CORPUS NAS     MOSUNNY   85  78  80 N12       29.88R HX  96
*ROBSTOWN      CLOUDY    80  77  91 N8        29.89S
ALICE          MOSUNNY   81  74  79 NE9       29.89R
KINGSVILLE NAS PTSUNNY   85  77  77 N7        29.89R HX  95
COTULLA        CLOUDY    78  71  79 VRB3      29.93R
*FAITH RANCH     N/A     77  72  83 VRB7      29.93S
LAREDO         MOSUNNY   81  72  74 NE6       29.92R
$$

TXZ248>255-281600-
DEEP SOUTH TEXAS

CITY           SKY/WX    TMP DP  RH WIND       PRES   REMARKS
BROWNSVILLE    SUNNY     82  77  84 SW5       29.87F HX  90
PORT ISABEL    PTSUNNY   86  77  74 S7        29.86F HX  97
*SOUTH PADRE   NOT AVBL
HARLINGEN      PTSUNNY   82  77  84 SE6       29.87S HX  90
*HEBBRONVILLE  CLOUDY    77  72  85 CALM      29.92R
MCALLEN        MOSUNNY   87  75  67 E5        29.89R HX  96
*WESLACO       MOSUNNY   83  75  75 CALM      29.87S HX  91
FALFURRIAS     MOSUNNY   82  74  76 NE7       29.89R
EDINBURG       CLOUDY    85  73  66 E5        29.89R HX  92
*ZAPATA        PTSUNNY   85  71  61 SE5       29.90R HX  90
$$

TXZ213>215-236>238-242>244-246-247-251-254-255-281600-
CMAN STATIONS

STATION/POSITION TIME  TEMP    WIND        PRES    WAVE
                       AIR SEA DIR/SP/G            HT/PER
                 (UTC) (F)     (DEG/KT/KT) (MB)    (FT/S)
SABINE PASS      1430   79 84   90/ 12/ 14 1015.1
SEA RIM ST PARK  1400   77      80/  8/  9 1013.7
NORTH JETTY/GLS  1430      83  120/  5/  7 1012.2
EAGLE POINT      1430   80 82  100/  7/  8 1012.9
MORGANS POINT    1430   78 83   70/ 11/ 14 1013.0
MISSION/ARANSAS  1400           30/ 12       N/A
PORT O`CONNOR    1430   79      40/  7/  9 1011.2
PORT ARANSAS     1400   80 84   20/  9/ 10 1011.2
MALAQUITE BEACH  1430   81 85  340/  7/  9 1010.9
PORT ISABEL      1430   80 86              1011.7
$$




USA.gov is the U.S. government's official web portal to all federal, state and local government web resources and services.